Theta_e
324 324 324 324 325 325 325 325 325 325 325 325 325 326 326 327 327 328 328 328 328 327 328 328 328 329 329 329 327 327 324 327 315 312 309 310 323 326 328 331 332 333 332 319 315 312 310 311 311 313 312 312 314 309 313 314 311 312 306 304 301 301 299 302 301 302 304 302 304 304 304 302 301 304 304 306 304 303 305 305 306 307 307 307 308 309 310 311
323 323 323 324 324 324 325 325 325 325 325 326 326 326 326 327 327 327 328 328 327 327 327 328 329 329 329 327 327 326 326 327 314 312 309 316 325 328 330 330 332 332 328 313 310 309 308 309 310 310 310 308 314 309 312 311 311 306 305 302 300 301 300 304 303 304 303 303 304 304 305 302 302 302 304 301 302 304 303 304 304 303 305 306 307 307 309 307
323 323 323 323 323 323 324 324 324 325 325 325 325 325 326 326 327 327 328 328 327 327 327 327 328 329 328 326 326 323 325 320 315 309 312 327 326 328 329 329 330 328 319 309 310 309 308 308 309 309 310 307 311 307 309 308 307 308 304 301 301 303 303 304 304 303 305 304 303 303 304 303 303 302 304 301 301 303 301 300 302 301 301 303 305 308 305 305
322 322 322 323 323 323 323 323 324 324 324 324 324 326 326 326 327 327 327 327 327 327 327 328 328 329 327 326 324 328 326 323 308 310 314 325 326 328 328 329 327 324 315 312 311 310 311 310 310 310 309 307 309 309 305 308 306 308 302 302 301 303 302 303 304 304 304 304 303 302 303 302 302 303 302 301 301 301 302 303 301 300 301 302 305 304 304 303
322 322 321 322 322 322 322 322 323 324 324 323 325 325 325 327 328 327 326 327 327 327 327 328 328 327 327 325 321 328 322 309 307 313 313 324 326 330 327 328 326 318 311 311 310 311 312 310 310 309 309 304 308 307 305 307 306 304 302 304 304 303 302 303 304 303 303 304 302 302 301 301 304 303 302 301 299 298 301 303 303 303 303 304 302 303 302 302
321 321 321 321 321 321 321 321 322 323 324 324 325 325 325 327 326 325 325 326 326 326 327 328 328 328 326 322 326 329 315 301 311 316 323 322 324 326 326 327 327 318 314 311 312 312 311 310 309 307 304 304 304 302 305 305 305 300 305 303 304 304 301 303 303 302 302 302 301 301 302 302 302 301 303 301 301 302 305 305 304 304 305 304 303 302 301 300
320 320 320 320 320 320 320 320 322 322 323 324 325 326 327 327 326 325 324 325 325 326 327 328 327 326 325 320 324 323 312 309 313 319 322 321 323 327 326 325 329 316 314 312 311 310 309 308 307 305 303 304 305 303 305 304 305 301 301 303 302 303 302 303 302 302 302 301 301 303 304 300 301 298 302 301 303 305 306 306 305 305 305 303 301 300 299 298
320 320 319 319 319 319 319 320 321 322 323 324 325 326 326 327 326 324 324 325 326 327 327 328 327 325 324 330 326 312 312 309 312 316 319 322 317 315 321 317 315 315 312 310 310 309 309 308 304 306 305 301 304 302 304 302 304 301 302 303 302 302 302 302 302 302 302 301 303 302 300 301 302 300 302 301 303 305 305 306 305 304 302 301 300 298 298 297
319 319 319 318 318 317 319 321 321 321 322 324 325 326 326 327 324 323 324 325 327 327 327 327 325 325 322 323 316 310 308 317 313 313 316 313 312 313 317 314 315 312 310 312 311 311 310 307 307 306 301 303 305 301 304 300 300 301 302 302 302 302 302 302 301 301 300 302 302 300 300 302 302 302 300 302 304 305 305 304 303 302 300 299 298 297 297 296
319 319 319 318 317 317 319 319 320 321 323 323 324 325 325 325 323 323 324 325 327 327 327 327 324 321 328 324 314 306 312 312 312 315 314 312 313 313 313 313 312 313 311 310 311 309 308 308 306 308 307 304 305 301 303 301 300 302 301 301 301 301 301 302 301 301 301 301 302 299 299 301 302 301 296 303 304 304 304 303 302 300 298 298 297 297 297 296
319 318 318 318 317 317 318 319 319 321 321 323 324 324 324 323 323 323 324 325 327 327 328 325 323 324 322 316 309 306 318 314 316 315 314 314 313 311 311 312 311 313 311 311 311 310 310 309 310 308 305 303 302 302 302 302 302 302 301 300 302 302 302 301 301 300 302 299 301 300 299 301 302 300 299 302 304 303 302 301 300 299 298 297 297 296 297 296
319 318 318 318 318 317 318 318 319 318 320 322 323 323 322 322 322 323 324 326 327 327 327 325 321 322 320 313 310 310 313 313 313 315 316 313 311 311 313 311 311 313 310 309 312 313 311 311 310 306 301 305 301 303 302 303 301 300 300 298 300 300 298 301 300 300 301 298 301 302 298 298 298 298 301 303 304 302 301 300 299 298 297 297 297 296 296 295
318 317 318 318 318 317 318 317 319 320 320 322 323 322 322 322 322 323 325 326 327 327 325 323 322 327 319 308 309 315 314 313 313 311 316 315 312 311 312 313 312 311 311 310 309 312 311 309 308 305 306 303 302 298 302 301 301 301 300 298 299 298 296 300 301 301 300 299 301 301 291 295 298 299 302 304 303 301 300 298 298 297 297 296 296 295 295 295
317 317 317 317 317 317 317 318 319 320 321 321 323 323 322 321 322 324 326 325 325 326 325 322 325 324 314 307 312 314 313 314 313 314 314 315 312 317 314 313 313 311 313 311 311 312 311 308 307 306 306 303 300 307 301 301 301 298 300 299 298 296 295 300 300 300 298 300 300 301 291 294 299 300 303 303 303 300 297 297 297 297 296 295 295 295 295 295
317 316 317 317 317 317 316 317 318 319 321 321 321 322 321 320 322 324 326 325 324 325 323 322 329 322 310 308 312 315 319 314 313 314 315 311 311 313 313 310 311 309 309 309 312 309 308 309 307 303 302 305 304 301 299 300 300 300 296 295 298 295 296 298 300 300 297 299 302 298 292 293 297 299 301 302 301 299 296 296 295 295 295 294 294 294 294 294
316 316 316 316 317 316 316 316 317 319 319 321 321 319 319 320 322 325 323 325 321 320 325 331 318 316 309 305 311 320 317 312 311 315 315 313 310 309 310 308 308 309 308 308 308 307 307 308 303 304 302 303 301 299 299 299 299 299 296 294 294 295 295 296 299 300 299 298 300 297 290 294 296 300 300 300 299 297 295 294 294 294 293 293 293 293 293 293
316 316 316 316 316 316 315 316 317 318 319 319 319 319 319 321 321 323 322 321 322 326 328 314 313 313 305 311 313 309 309 313 315 315 313 312 308 309 307 308 307 307 308 308 307 307 307 303 304 304 302 300 301 300 294 294 295 297 297 293 295 292 294 292 297 298 300 297 294 297 294 295 296 298 298 299 298 295 294 293 293 293 292 293 293 293 292 292
316 315 315 316 316 316 315 315 318 319 319 318 317 319 322 323 318 321 324 323 324 322 318 318 317 312 305 310 305 306 310 310 315 312 313 312 308 308 307 304 306 306 306 305 307 304 305 300 303 299 301 300 299 296 292 289 292 291 292 291 292 293 293 292 293 296 298 296 294 295 294 294 295 296 296 296 297 294 293 292 292 291 292 292 292 291 291 291
316 315 315 315 315 315 315 316 318 319 319 319 322 324 321 312 321 321 315 316 316 314 309 310 309 304 303 304 309 310 311 312 313 310 309 309 310 309 308 307 306 304 303 303 303 303 302 300 304 301 296 295 295 295 293 294 293 292 292 291 291 291 292 293 296 298 296 293 293 293 291 292 293 294 294 295 295 293 292 292 292 291 292 292 291 290 289 289
315 315 315 315 314 314 314 316 318 318 318 320 324 325 323 311 314 312 313 313 308 308 308 309 308 307 308 307 308 312 313 311 306 309 310 309 308 306 305 305 306 305 302 300 301 301 301 295 295 294 295 293 296 296 295 295 294 293 294 294 292 292 293 296 297 297 296 293 292 292 292 292 292 294 293 294 294 293 291 290 290 290 291 291 291 289 289 289
314 315 315 314 314 314 315 317 318 318 317 323 323 308 301 302 304 303 302 307 309 310 307 308 307 307 307 308 312 307 305 306 307 307 306 308 306 303 303 303 303 302 303 300 299 300 300 296 297 296 294 295 296 296 295 295 295 294 293 293 292 293 290 295 295 297 297 291 290 293 291 292 293 293 292 293 292 290 289 289 289 290 290 289 288 288 288 289
314 314 314 314 313 314 315 317 317 316 318 324 316 306 307 304 309 309 304 305 309 307 309 308 306 306 310 309 311 308 306 303 304 306 309 308 305 302 303 301 300 298 302 301 300 301 296 295 295 294 295 296 296 295 295 294 293 294 292 292 291 292 294 294 295 296 294 292 290 292 290 291 292 291 291 290 289 290 290 290 289 289 288 288 288 288 288 288
314 314 313 313 313 314 316 316 317 314 319 316 311 312 309 313 313 312 308 306 305 311 307 307 307 307 306 307 306 307 304 300 300 304 303 306 304 302 301 299 299 299 300 299 295 294 292 296 294 296 297 294 295 295 295 294 295 293 294 291 289 293 289 287 293 293 293 292 290 291 289 291 290 290 289 289 288 288 289 290 290 289 287 287 287 287 287 287
313 313 313 312 313 314 315 316 315 317 315 313 311 309 313 313 313 310 309 305 304 305 307 308 307 308 307 305 306 305 302 302 300 300 305 304 301 301 301 298 297 299 298 296 294 293 292 295 295 296 296 295 294 295 294 293 291 294 295 293 292 290 289 288 288 291 293 292 293 291 289 288 288 287 286 287 289 288 288 289 289 289 289 289 289 289 289 287
313 313 312 312 312 315 315 314 314 311 312 314 309 311 312 313 313 313 306 304 304 304 309 309 312 312 307 309 310 303 302 300 301 302 303 303 300 300 299 298 297 298 298 297 294 293 294 295 297 295 296 295 295 293 295 293 289 291 295 292 290 289 288 289 291 289 288 288 291 288 281 283 289 289 286 287 287 286 287 287 287 287 287 287 287 287 288 289
313 312 312 312 313 314 313 314 315 314 315 311 312 313 312 312 313 312 303 299 297 304 305 301 314 305 312 304 307 305 301 299 301 302 301 302 303 298 299 299 297 295 296 295 294 294 292 293 297 296 295 295 295 293 295 293 290 289 290 290 290 289 289 289 288 288 283 281 288 291 281 279 288 288 286 287 286 285 286 286 286 286 286 286 286 287 287 287
312 311 311 312 313 313 314 310 312 315 312 315 311 314 312 311 313 310 303 299 295 305 302 305 306 306 309 304 302 303 296 298 300 300 301 302 298 303 296 300 297 297 295 296 293 291 293 294 295 296 294 294 292 290 294 293 290 287 290 291 289 289 288 288 288 288 285 290 290 290 287 281 281 287 290 288 285 284 284 285 285 286 286 286 286 287 287 287
311 311 311 312 313 312 311 313 313 311 304 313 314 313 312 313 313 311 302 288 288 305 302 302 306 310 309 303 302 298 298 299 297 297 299 301 301 299 297 296 295 295 295 294 286 297 293 295 295 293 294 291 290 293 293 295 290 289 290 291 289 289 289 289 289 287 287 285 281 286 289 282 282 287 289 287 285 284 283 283 284 285 285 286 286 286 287 287
311 310 311 312 312 312 315 315 312 310 313 312 312 311 312 312 309 304 298 286 304 302 309 302 310 305 304 302 300 300 299 301 297 297 300 299 302 298 296 297 295 294 295 293 289 295 294 293 293 294 291 289 293 291 291 292 289 292 291 292 293 292 291 291 288 286 285 282 278 283 287 280 281 287 285 287 285 282 282 283 284 284 285 285 285 286 287 287
310 310 310 312 311 315 315 313 312 313 313 312 311 311 311 309 306 298 293 285 305 296 302 303 302 301 303 300 301 299 297 298 298 298 298 297 298 302 296 297 296 294 294 295 293 294 293 296 296 293 292 294 292 291 293 289 290 292 292 291 290 290 289 289 288 285 282 277 281 286 287 284 276 284 285 283 283 281 282 283 284 285 285 285 286 286 286 286
310 309 310 310 309 312 309 308 310 312 312 312 312 311 309 307 298 293 285 294 299 301 300 300 299 302 299 298 298 298 298 297 298 297 296 296 296 297 297 294 296 293 292 293 291 294 294 294 294 294 295 294 294 292 293 293 293 292 289 287 287 286 288 285 285 285 277 277 282 284 282 283 274 279 282 283 283 283 282 281 282 283 283 284 285 286 286 286
309 309 309 309 311 311 306 309 312 312 311 311 311 306 302 294 300 288 289 300 293 300 299 299 299 299 297 298 295 298 299 298 297 296 296 296 296 295 295 292 296 289 290 290 288 291 290 291 293 294 293 294 293 292 293 291 293 289 288 287 281 279 280 277 281 275 278 277 281 282 281 277 278 282 282 282 283 283 284 283 283 283 283 284 285 285 286 286
309 310 307 309 310 310 312 314 314 312 311 308 307 303 298 294 285 295 295 299 295 303 298 301 300 298 298 296 298 299 296 295 298 295 295 295 292 295 294 293 295 293 286 292 289 289 290 291 292 293 293 292 293 287 288 287 287 287 285 283 280 276 275 272 275 278 278 282 283 281 283 275 281 283 285 283 283 284 284 284 285 284 284 284 285 285 286 286
310 309 310 311 311 313 314 313 314 312 307 307 305 300 298 290 288 298 299 299 300 299 299 299 297 296 295 295 299 297 295 298 296 294 293 293 292 292 293 292 292 291 291 289 285 287 284 285 288 290 287 291 291 289 287 286 285 285 287 284 282 279 275 270 274 272 273 275 279 283 276 275 276 280 284 284 285 285 285 285 285 285 285 285 285 286 285 285
308 308 310 309 308 311 312 313 312 311 310 307 296 295 290 289 293 293 295 299 301 296 296 296 297 295 296 296 296 294 296 294 294 293 291 291 290 291 292 292 292 293 294 286 291 287 286 286 288 288 288 289 288 289 290 288 286 285 287 286 281 279 284 275 277 275 274 273 273 277 275 281 280 284 285 285 285 285 285 285 284 284 285 285 284 284 284 285
308 309 309 309 310 312 312 313 312 312 310 298 295 291 289 293 291 299 296 301 298 298 296 296 297 294 294 296 295 294 296 294 293 291 292 291 294 292 295 294 291 293 291 286 291 285 286 283 287 288 289 286 286 288 289 290 280 284 283 280 282 284 282 277 277 279 276 275 272 279 278 282 283 283 283 284 283 283 284 283 283 283 284 284 283 284 284 284
305 311 306 310 310 313 311 312 312 310 307 297 293 289 295 297 301 301 302 298 297 299 297 292 294 293 293 293 294 293 292 292 292 291 291 292 290 293 292 293 295 293 294 292 288 293 284 285 287 287 284 285 287 287 288 286 288 283 279 280 284 285 281 277 271 275 273 270 272 277 274 277 278 274 282 282 281 282 282 282 282 283 283 282 283 283 284 284
305 307 306 308 312 312 312 312 311 309 303 294 290 293 301 297 300 301 303 298 296 298 296 294 295 298 292 293 293 293 292 292 293 290 290 293 291 296 292 290 293 294 292 292 288 288 288 281 286 286 286 285 287 288 285 286 287 283 281 286 279 273 273 278 273 267 269 269 271 275 277 277 278 277 279 280 279 280 281 281 281 281 282 282 282 283 284 285
305 302 304 310 312 312 311 312 310 304 296 291 291 291 298 298 301 300 301 301 301 299 294 296 294 297 296 293 295 293 293 291 293 290 288 292 288 293 293 293 290 290 289 290 287 287 290 280 282 283 284 285 285 286 279 281 285 284 285 282 285 280 277 274 276 274 274 269 270 271 275 272 280 280 280 280 280 280 280 280 280 281 282 282 282 283 283 284
301 298 302 308 311 311 311 311 307 300 293 289 292 293 302 296 298 299 300 300 298 296 296 295 297 293 296 296 296 293 295 293 293 293 291 294 292 295 292 294 291 288 289 289 287 291 284 287 278 282 283 284 279 283 281 283 278 279 279 279 279 279 281 279 277 273 272 269 269 269 267 274 278 281 280 280 281 281 280 280 281 281 282 282 283 283 283 283
304 300 301 307 310 312 311 308 299 292 291 294 297 297 299 297 298 297 298 301 302 302 297 297 296 293 295 294 293 296 294 293 292 291 291 291 292 289 293 293 292 286 288 286 286 287 282 283 278 279 278 279 282 284 283 282 284 281 280 278 279 276 273 271 269 277 271 271 268 268 267 275 280 282 282 282 282 282 282 281 281 282 282 282 283 284 284 283
299 297 300 308 311 311 306 295 295 299 295 292 293 296 295 299 297 298 297 299 299 297 299 295 297 296 296 295 296 296 293 292 292 290 292 290 294 294 292 294 291 289 286 283 284 289 284 284 282 278 280 281 282 282 283 283 283 283 282 279 281 279 278 273 267 271 272 273 274 272 268 271 281 283 282 282 283 282 282 282 281 282 282 282 283 283 283 283
298 300 305 309 310 308 303 295 299 295 293 296 301 298 301 297 296 299 296 297 294 296 297 295 294 294 296 295 296 295 295 291 292 289 292 292 292 286 290 291 291 289 288 282 284 283 287 280 278 280 281 279 280 282 283 283 282 280 281 281 279 276 277 275 274 276 272 273 270 271 268 272 279 284 284 284 284 283 283 283 281 282 282 282 283 283 283 283
299 301 300 308 310 307 300 291 292 292 293 297 297 296 301 297 298 297 295 297 295 296 294 294 296 296 295 298 295 293 296 287 293 292 290 293 290 285 287 288 289 285 286 284 282 286 279 282 278 275 276 277 276 278 279 280 281 278 277 280 280 280 279 279 278 277 270 272 272 269 264 270 280 282 284 284 283 282 282 282 282 281 282 282 282 282 282 282
300 302 302 302 305 304 296 298 297 296 295 294 295 293 295 295 298 298 297 296 297 297 297 294 296 297 295 297 295 295 296 293 290 294 292 290 286 284 285 285 283 284 284 285 287 289 283 282 279 274 272 271 271 271 273 273 275 277 279 279 280 279 278 276 271 273 269 273 273 269 269 276 281 283 282 283 282 281 282 282 282 283 282 282 282 282 282 281
297 294 296 296 300 298 299 301 299 298 297 297 295 296 297 294 297 298 299 297 299 298 297 297 295 297 295 291 290 290 290 294 292 289 287 286 282 283 282 284 284 285 286 287 286 287 281 282 281 280 279 277 280 279 279 281 278 274 277 278 278 279 279 278 276 272 269 272 271 273 274 274 276 279 280 281 281 280 280 280 280 281 282 282 282 281 281 281
304 297 293 289 296 296 294 298 296 297 294 299 293 298 295 296 297 296 300 294 298 297 297 296 295 291 291 290 289 289 291 290 292 287 286 284 282 281 284 283 283 284 285 285 286 284 280 277 280 281 280 281 282 281 281 280 277 278 276 276 278 278 278 275 273 270 276 272 268 275 276 274 275 278 279 279 280 280 280 280 281 281 281 281 281 281 281 280
293 300 302 302 297 292 290 291 295 296 298 299 295 299 296 296 296 293 297 297 297 298 294 295 294 294 294 291 290 287 289 288 287 285 286 283 280 281 280 283 282 285 284 284 287 282 279 276 280 280 279 281 282 281 281 279 279 278 278 277 276 277 277 273 274 276 276 271 269 274 276 274 276 278 280 280 280 279 280 280 281 282 281 281 281 280 279 279
303 300 301 306 298 301 298 297 297 296 296 297 295 297 295 295 294 297 295 293 293 292 295 289 292 293 293 293 291 288 289 282 283 286 283 282 281 279 279 280 284 285 284 282 283 284 280 277 279 280 278 279 280 280 281 279 278 278 278 278 278 278 276 276 276 276 276 274 276 275 275 275 278 278 280 281 281 281 281 282 282 281 280 280 280 279 278 278
297 297 294 298 300 301 303 301 298 296 294 296 292 295 296 295 294 297 297 294 289 291 295 291 293 293 292 292 292 289 291 290 291 285 285 283 282 282 281 282 280 283 283 280 281 282 279 275 279 278 276 276 278 279 279 278 278 276 278 279 278 278 277 277 277 277 277 276 276 276 275 274 279 282 281 282 282 282 282 280 280 280 280 279 279 278 278 277
306 307 305 298 295 297 299 299 297 296 294 295 293 295 295 295 294 298 297 299 296 293 292 291 293 293 293 291 291 291 294 292 289 288 286 285 281 285 282 282 284 279 280 279 281 279 281 276 280 277 274 274 278 278 278 278 278 277 276 277 277 276 275 276 275 277 276 274 275 275 273 274 279 282 282 281 281 280 279 280 280 280 280 279 278 278 277 276
307 307 308 304 295 298 296 298 298 296 291 296 296 296 295 295 297 298 294 300 299 300 297 295 295 293 291 288 287 290 292 288 287 288 290 290 290 288 289 286 285 281 279 279 282 278 279 277 275 275 272 273 276 277 276 275 274 270 272 275 277 277 278 278 279 279 279 278 274 272 273 278 280 281 279 279 280 280 279 280 279 279 279 279 278 277 276 275
Wind_Speed
17 17 17 17 17 17 16 16 14 14 14 14 14 14 14 14 14 14 14 12 13 13 13 12 12 10 9 9 10 10 9 2 12 12 14 4 5 11 14 14 15 15 13 10 8 4 5 3 4 2 4 5 2 3 3 1 3 3 4 4 4 3 3 5 4 4 6 7 6 8 5 7 8 8 6 7 8 10 6 7 10 8 9 13 13 14 15 18
17 18 18 18 18 18 17 15 15 14 14 14 14 15 15 14 14 14 14 12 12 13 12 12 11 10 9 8 9 7 6 3 10 15 10 4 8 11 13 13 14 12 13 6 7 7 7 6 6 8 6 5 4 1 1 1 0 4 4 4 2 5 6 3 3 4 7 9 10 8 5 3 7 8 7 8 8 3 7 11 12 14 12 13 13 14 16 18
18 18 19 19 19 19 18 17 16 14 14 14 14 14 14 14 13 13 13 12 12 12 12 11 10 9 9 8 8 4 3 5 2 12 7 5 10 11 12 12 12 12 7 7 5 5 5 6 6 7 5 6 3 1 1 1 3 1 4 5 6 6 5 4 2 3 6 11 11 10 7 8 2 5 6 6 10 4 11 11 13 14 15 18 16 16 17 18
18 18 19 19 20 20 19 19 17 15 14 14 14 14 14 13 12 14 14 13 12 11 11 10 9 8 8 9 4 5 3 5 5 4 8 10 12 12 12 11 11 11 7 6 6 4 3 5 5 5 6 7 2 2 5 3 4 3 4 4 6 5 2 5 1 1 7 9 11 10 9 8 5 6 4 6 7 8 9 13 13 14 15 14 15 17 17 18
19 19 19 19 20 21 20 20 17 17 16 15 15 15 14 11 11 14 15 13 11 11 11 10 9 9 7 6 3 4 3 5 4 2 8 10 12 12 11 10 9 8 7 7 6 5 6 6 6 4 4 5 1 3 1 3 3 3 5 6 4 2 1 4 2 4 8 11 9 9 10 6 6 4 2 6 5 7 9 12 11 12 13 14 16 16 17 18
18 19 20 20 20 21 21 22 20 18 18 16 13 14 13 11 13 15 15 15 11 10 10 10 9 8 8 4 6 4 3 3 3 3 6 9 12 13 10 9 10 8 8 8 7 7 6 5 6 2 4 4 2 5 5 1 1 4 4 4 5 6 3 4 2 2 7 9 8 8 6 7 6 5 5 3 6 9 10 9 8 12 11 13 16 16 17 17
18 19 19 20 20 21 22 23 20 20 19 17 15 14 12 12 12 15 15 15 13 9 9 10 9 8 7 4 5 4 4 5 2 4 7 10 12 12 10 8 10 7 7 7 7 6 6 5 5 4 4 5 3 3 2 4 2 4 3 4 5 4 3 1 3 4 7 9 9 9 10 9 5 4 3 4 10 9 10 6 9 9 12 15 16 17 17 17
18 18 19 19 19 20 22 22 21 20 19 18 15 13 12 12 12 16 14 14 12 9 9 9 8 8 4 3 4 4 3 4 7 5 9 8 10 8 9 6 6 6 4 5 7 6 6 4 6 5 4 4 3 3 3 8 6 5 4 6 3 1 3 0 3 4 5 7 8 10 10 8 2 3 3 8 7 9 13 8 10 12 14 15 16 16 16 17
17 18 18 20 20 21 21 21 22 21 20 20 18 14 14 11 16 14 13 13 11 10 8 8 8 7 2 4 4 3 4 3 4 6 10 11 8 8 9 4 8 6 3 3 4 6 7 3 2 3 3 2 3 6 1 5 3 0 4 7 3 3 2 2 3 2 2 2 6 11 10 4 4 2 4 7 6 11 10 11 11 13 13 14 15 16 16 17
17 18 18 20 21 21 22 22 21 22 21 21 20 18 14 13 17 14 12 11 10 10 9 8 8 5 2 6 4 3 3 3 2 3 10 8 8 5 6 6 8 7 5 4 4 6 4 4 4 2 4 5 2 5 1 5 2 1 6 7 8 3 2 3 3 3 3 4 8 12 13 6 5 6 5 4 9 10 9 12 12 13 14 14 13 14 15 17
17 18 18 19 21 21 23 22 22 21 23 21 20 19 14 16 16 13 10 10 9 8 9 8 8 4 2 4 7 1 1 1 2 4 7 7 5 6 7 7 8 6 6 3 4 4 4 4 2 1 2 2 3 4 4 1 3 6 6 9 8 6 6 6 6 8 6 2 9 11 14 8 4 5 5 6 10 11 8 11 12 12 12 12 14 14 14 14
17 18 18 19 19 21 22 22 22 23 24 22 21 20 19 16 15 11 9 9 6 8 8 8 8 3 6 1 3 4 2 2 3 4 5 7 3 3 4 4 5 5 5 5 3 3 3 5 3 5 3 1 3 5 5 2 4 5 4 5 3 12 9 3 5 8 5 3 7 9 13 7 8 7 4 9 8 12 8 11 12 12 11 11 11 12 13 14
16 17 18 18 19 21 21 23 22 22 23 24 21 25 20 15 13 9 8 7 4 7 6 6 8 2 4 1 4 4 2 3 2 4 5 3 0 1 3 2 3 3 4 5 4 2 3 4 4 7 2 4 6 4 4 2 4 3 4 3 5 11 6 8 4 7 5 3 7 8 5 7 6 7 3 5 6 6 10 10 10 9 9 10 10 10 12 13
15 16 17 18 18 19 21 23 23 23 21 24 21 23 19 15 11 8 6 5 6 5 6 6 3 3 4 4 2 2 3 2 3 4 8 8 5 1 3 2 1 2 2 3 2 2 3 3 5 6 3 5 4 3 5 4 3 3 6 3 1 4 4 6 3 4 5 1 6 8 7 6 5 6 2 11 5 5 10 10 9 9 8 8 9 10 11 13
15 15 17 18 18 18 20 22 23 23 22 21 25 23 19 14 9 7 6 5 3 5 5 6 2 2 2 3 2 3 3 1 2 7 5 9 9 3 3 7 2 2 2 1 1 2 2 3 4 6 3 3 5 7 6 6 6 4 4 3 1 2 1 10 4 5 4 4 5 11 6 7 11 8 15 10 10 11 11 10 9 9 8 8 9 10 11 11
14 15 16 18 18 19 20 21 22 23 23 22 22 25 18 9 4 4 4 3 3 5 3 2 1 4 4 4 2 2 2 2 5 5 2 4 6 4 7 6 5 4 3 2 1 2 4 5 5 3 6 5 6 6 8 6 6 4 2 4 3 3 3 3 8 7 8 6 4 5 6 10 6 14 11 17 12 12 11 9 9 8 9 8 9 9 10 11
13 14 16 17 18 20 20 20 21 23 22 22 23 23 18 4 4 4 3 5 2 2 2 1 1 1 5 3 0 3 1 2 3 2 6 1 4 5 7 5 3 5 2 4 4 3 5 4 2 3 5 4 5 7 7 5 5 4 6 6 5 6 5 5 8 4 5 8 9 5 5 6 11 15 15 11 13 12 10 9 9 7 7 8 8 9 11 12
13 14 15 17 19 20 20 20 21 22 23 25 23 18 17 9 4 3 5 4 1 2 2 1 1 2 3 3 1 3 2 4 5 6 6 2 2 5 3 4 3 5 6 7 6 6 2 4 4 6 4 2 6 7 5 7 5 6 8 8 8 7 8 10 8 6 3 5 6 2 5 9 9 8 8 12 11 12 10 8 7 7 7 8 8 10 13 13
13 13 15 17 18 19 20 20 21 21 22 24 21 16 5 2 3 3 2 5 3 2 2 2 3 5 3 3 1 3 4 3 5 5 4 7 4 5 4 5 5 5 5 6 3 7 3 6 6 6 5 6 6 5 4 6 6 8 8 8 9 9 6 7 6 7 7 7 3 4 9 9 10 8 10 9 10 11 10 7 6 5 6 7 9 10 12 13
13 14 15 17 18 18 20 20 21 21 20 15 10 8 2 7 3 4 5 9 4 1 4 11 2 5 4 1 4 7 3 1 3 2 3 2 6 4 6 5 6 6 5 5 8 2 2 5 6 5 4 6 6 4 6 6 7 7 7 9 10 11 10 7 2 6 6 4 3 9 9 12 13 5 10 8 10 10 8 8 6 5 5 7 8 10 11 12
13 14 15 16 17 18 19 21 19 19 19 9 10 6 6 6 7 7 8 6 3 3 4 2 2 4 4 3 3 7 2 4 4 2 4 2 3 5 1 4 6 8 3 3 5 1 2 7 2 5 5 5 5 4 4 7 6 8 9 9 10 9 11 7 8 5 3 5 7 5 11 13 12 9 8 8 9 8 8 7 6 7 7 8 10 10 11 10
12 14 15 16 17 17 19 19 19 18 15 5 8 6 3 4 3 3 3 6 2 4 3 2 1 4 2 2 2 2 3 3 6 1 3 9 1 4 4 6 6 8 7 7 5 4 6 8 5 5 4 1 3 4 5 7 9 8 8 8 9 7 9 9 4 4 7 9 6 5 12 13 3 15 9 8 9 8 7 6 6 7 8 7 8 9 11 12
11 13 15 16 17 17 17 19 13 17 6 5 6 5 3 3 3 2 3 5 10 3 3 3 5 4 3 2 2 2 3 4 2 4 8 9 3 1 6 6 8 8 10 4 7 8 7 2 4 3 1 3 4 5 7 9 8 8 7 8 9 9 9 3 1 10 13 7 6 6 9 8 13 11 10 10 10 10 8 7 8 6 7 7 10 11 12 13
11 12 14 16 17 17 17 16 16 8 7 8 7 5 2 2 3 3 3 5 8 2 1 1 3 1 1 1 2 3 5 2 2 2 8 7 4 4 5 4 9 7 8 4 5 7 10 5 1 2 0 3 6 7 9 6 8 8 5 8 7 7 7 7 11 12 11 8 3 6 11 5 10 9 8 9 10 8 7 8 5 5 5 6 8 9 11 13
10 12 13 15 17 17 17 14 3 3 3 1 5 1 2 1 3 3 3 5 4 4 1 2 1 1 2 1 2 3 2 1 1 4 5 6 5 5 2 2 3 7 7 3 7 8 9 3 3 2 2 2 6 8 4 4 9 9 4 5 5 7 10 11 12 15 8 4 8 14 11 7 7 11 12 10 8 7 5 5 5 5 7 10 11 12 11 10
9 12 13 14 17 19 14 3 3 1 1 3 3 2 1 1 3 3 3 4 6 3 2 4 2 2 0 3 2 1 2 3 4 3 3 4 2 3 4 3 1 10 6 5 8 6 5 1 1 2 2 4 6 8 2 2 7 9 3 4 5 7 8 10 13 10 9 8 7 7 5 11 4 9 14 12 9 7 6 4 5 7 9 10 11 11 12 13
9 11 12 13 15 19 6 2 2 2 3 3 2 1 1 1 0 3 3 3 6 4 2 3 2 1 2 3 2 2 5 3 2 3 1 2 2 2 4 6 2 3 2 3 4 3 3 1 1 1 4 5 6 9 4 3 5 7 6 7 8 8 10 11 10 8 10 11 12 7 8 11 8 9 13 12 8 6 2 4 6 8 10 11 11 12 14 15
8 9 11 12 12 10 3 3 2 1 3 3 2 1 0 1 2 4 3 4 2 2 2 3 2 1 2 2 0 5 3 1 4 3 2 2 3 3 4 10 9 10 1 2 9 3 3 0 1 4 3 4 7 4 4 2 4 4 9 6 9 9 10 10 8 9 10 11 10 5 7 6 7 3 12 10 10 4 3 5 7 10 11 13 13 13 15 16
6 8 9 10 11 9 7 4 5 2 3 2 2 1 1 2 3 3 2 4 2 2 2 3 1 3 2 3 5 4 3 3 5 3 2 2 1 3 5 2 3 3 2 5 11 4 3 4 4 2 2 6 4 3 6 3 5 3 8 7 8 9 9 9 8 10 9 5 10 8 9 6 11 5 8 6 5 3 3 5 8 11 13 13 13 14 17 18
5 6 8 9 9 4 3 2 1 3 3 3 2 2 2 3 3 4 1 6 3 2 1 3 3 1 1 4 5 6 6 3 1 1 2 2 3 3 1 0 5 4 7 6 9 6 2 2 1 1 3 3 1 3 2 2 4 8 8 9 9 8 9 9 7 7 5 6 10 8 7 8 8 7 3 5 4 3 5 6 9 11 12 14 14 16 17 17
4 5 5 7 3 3 3 4 4 4 2 3 3 3 3 3 4 3 5 1 3 1 1 4 2 1 5 5 6 5 3 2 3 2 4 3 4 4 3 3 3 4 6 7 6 7 3 3 3 1 1 2 2 2 3 4 5 5 4 7 10 8 6 9 5 0 4 8 4 5 4 3 6 2 4 6 6 4 5 5 9 12 13 14 15 15 16 16
3 3 3 4 3 3 3 2 5 5 4 4 4 2 3 5 5 7 5 5 5 3 4 3 2 1 1 1 2 4 3 3 4 4 5 0 3 5 3 6 3 7 6 5 2 5 5 6 3 4 1 3 3 5 5 4 5 5 5 5 7 9 7 5 4 5 6 6 5 8 5 5 12 8 8 8 8 5 5 5 8 12 15 16 15 17 16 15
2 2 2 2 1 3 1 2 5 4 5 4 2 4 5 4 6 8 7 3 2 1 3 2 2 1 1 1 8 2 4 6 4 2 2 1 3 6 1 4 3 4 9 6 8 8 2 5 4 4 3 2 3 4 3 4 3 2 2 3 4 7 6 10 6 6 7 2 8 1 8 10 11 15 12 10 8 6 5 7 8 12 14 16 16 16 16 16
3 2 3 3 2 3 0 3 3 6 6 3 3 5 5 5 7 6 3 4 2 1 3 1 1 2 3 6 2 4 6 5 3 2 2 3 3 6 3 5 6 5 5 8 9 6 9 6 7 7 4 2 3 1 3 2 3 1 1 3 1 2 3 8 5 8 7 8 10 8 5 4 5 5 10 9 5 2 6 7 10 13 14 14 14 16 16 17
4 3 2 1 3 5 5 5 5 6 4 3 5 7 7 10 4 5 5 4 2 2 2 3 2 2 7 9 3 3 6 4 3 2 5 5 6 6 7 6 8 3 3 5 3 1 9 8 3 2 2 3 4 1 1 2 2 4 1 4 1 4 4 8 6 8 9 13 10 4 6 4 5 10 8 7 5 1 6 10 13 15 15 15 14 15 16 16
3 2 2 3 3 5 7 6 6 5 4 4 6 8 13 8 3 4 2 3 3 3 1 4 6 7 10 9 5 5 3 5 4 3 5 10 9 8 2 4 8 12 8 7 0 4 1 7 7 5 1 2 2 2 1 1 4 4 2 2 2 6 2 7 9 8 1 6 13 5 8 5 8 8 10 8 2 2 7 11 13 15 15 16 14 15 17 17
3 1 4 3 4 4 7 6 6 5 3 6 9 11 10 7 13 6 3 4 0 2 1 7 5 7 3 3 4 7 4 2 5 3 5 5 8 13 5 6 3 10 7 2 4 2 6 4 5 6 5 3 0 3 2 2 3 3 4 3 4 4 2 3 6 3 6 10 10 4 9 12 7 6 8 7 1 5 9 13 15 15 15 15 14 15 17 18
2 3 4 5 4 7 7 7 6 4 4 8 13 15 4 10 5 10 5 4 2 4 6 7 5 4 7 8 8 7 6 4 3 6 7 6 5 7 7 5 6 6 6 1 4 0 3 8 5 3 2 3 3 3 5 4 4 2 2 2 1 3 2 5 2 5 5 9 8 10 12 13 9 8 5 5 5 9 11 14 16 16 16 16 16 18 19 19
1 1 4 5 5 8 7 7 5 5 7 9 12 11 10 14 7 6 6 5 1 4 6 10 9 7 8 8 4 6 9 5 4 8 5 5 6 8 9 7 4 5 3 6 3 1 2 4 1 2 0 3 3 5 7 5 3 4 2 1 1 2 7 6 5 2 2 10 7 9 7 11 8 4 7 3 6 6 12 14 15 16 16 16 17 18 20 21
3 1 5 5 6 7 7 7 4 5 8 14 10 13 2 5 8 5 5 9 6 7 9 8 11 11 10 9 5 7 6 11 9 8 9 4 8 8 9 6 8 8 7 1 1 1 3 4 8 4 3 3 4 8 9 7 6 4 5 6 4 4 1 2 4 3 5 5 8 12 14 2 6 6 3 3 5 8 12 14 14 15 16 17 18 19 18 20
2 3 1 5 8 8 7 5 7 10 11 10 11 10 3 7 5 7 9 7 6 9 8 8 8 10 7 6 10 9 9 7 8 10 8 7 8 7 9 10 10 9 6 2 2 4 2 5 7 3 5 8 6 6 3 5 1 7 7 9 9 7 5 6 8 4 1 6 6 6 13 11 6 5 3 4 2 9 13 14 14 16 17 18 18 20 21 19
5 5 2 9 9 10 8 8 7 5 7 12 12 8 8 4 5 7 6 4 6 6 2 5 11 11 10 11 10 5 5 8 9 7 9 11 10 13 3 7 10 15 10 6 6 1 2 1 3 7 7 7 1 2 4 4 3 4 4 7 6 8 6 6 7 3 1 7 6 10 10 16 6 2 3 2 4 10 12 13 14 15 16 18 18 19 21 22
5 5 4 8 7 10 6 8 5 5 9 6 4 6 2 2 5 6 10 6 3 5 5 8 10 7 11 10 9 11 10 8 7 9 6 9 7 5 3 6 13 10 3 2 5 4 3 1 3 9 1 2 2 3 1 2 1 4 7 7 6 10 12 9 7 6 6 7 7 7 12 8 8 6 4 3 8 12 11 13 15 14 15 18 19 20 20 19
4 4 3 5 6 6 7 12 11 12 10 7 8 11 6 5 7 8 10 11 9 6 10 8 3 15 10 11 10 13 9 4 8 11 9 7 4 4 2 7 8 6 5 5 6 6 3 5 6 3 4 5 4 5 5 4 5 6 6 10 10 8 8 8 2 1 3 10 11 8 17 10 4 7 3 7 14 15 15 13 13 15 16 17 18 18 19 21
2 1 3 5 5 7 11 8 11 10 11 14 12 16 10 5 9 14 12 12 12 12 3 8 11 5 9 7 10 8 10 16 4 6 3 3 2 1 4 2 5 5 3 1 2 6 5 4 7 7 9 9 7 5 6 8 10 7 8 9 13 14 14 6 5 6 10 5 14 14 16 15 10 9 13 15 14 15 14 13 13 14 17 18 17 17 19 19
5 6 5 3 5 6 9 6 6 9 11 10 13 16 13 16 8 11 14 17 15 12 12 2 1 7 10 5 7 9 10 9 13 2 3 4 3 1 1 4 4 3 3 4 2 1 2 3 10 12 12 13 11 3 3 6 5 7 9 14 14 14 14 10 4 8 14 11 14 16 15 19 18 16 17 15 13 15 13 13 14 16 18 18 17 17 18 18
2 8 7 5 4 9 9 8 9 8 13 10 11 6 16 18 11 5 16 9 14 13 7 9 7 6 8 8 13 11 12 9 9 2 8 5 3 2 3 3 3 1 2 1 2 2 0 4 12 14 17 15 11 9 2 6 8 9 8 13 15 15 12 12 13 14 8 8 20 11 15 16 18 15 14 15 16 13 11 13 15 16 17 18 18 19 21 20
8 5 7 10 7 8 12 12 14 12 15 13 20 12 13 11 13 14 7 11 5 11 9 6 14 21 13 16 7 8 9 10 7 13 4 3 6 3 2 3 2 3 4 2 1 3 4 6 8 12 17 15 13 13 6 6 9 10 12 13 15 16 14 17 19 19 13 12 18 10 12 14 14 14 15 15 15 10 11 14 16 18 18 18 19 20 21 20
7 2 3 8 15 14 12 10 18 21 22 22 14 17 20 17 20 16 8 5 6 7 17 11 18 19 19 16 11 14 9 3 10 12 7 5 10 6 4 1 7 5 5 4 3 2 1 8 5 8 11 12 12 12 10 13 12 13 15 16 17 16 19 21 20 21 21 21 19 18 19 21 17 17 16 14 7 9 10 12 15 18 19 19 19 20 19 20
10 9 5 4 6 7 12 10 13 17 18 20 17 20 16 18 25 17 8 10 7 13 14 20 16 10 17 17 16 18 19 18 17 9 7 10 4 6 6 6 5 8 5 6 5 5 6 4 6 4 7 10 10 11 12 13 14 18 18 19 18 18 19 19 19 21 19 23 22 23 23 21 16 14 12 6 7 9 11 14 17 17 17 19 19 19 18 19
1 5 4 5 10 11 9 8 8 13 14 16 20 15 12 21 26 19 12 14 22 11 14 24 21 14 9 15 19 24 20 11 7 8 12 17 11 10 10 4 10 8 10 5 5 4 6 3 5 1 4 9 5 11 12 13 16 19 23 19 18 19 19 18 18 17 18 18 19 18 15 15 11 9 7 8 9 11 12 14 15 15 17 18 17 16 17 20
10 3 5 6 10 10 14 15 17 9 19 18 15 19 15 23 21 10 16 15 20 16 11 15 13 12 14 13 21 23 7 8 9 7 8 5 3 5 8 7 13 11 9 9 7 6 7 4 3 3 4 8 3 4 5 6 10 15 23 19 21 21 18 15 16 17 19 17 14 14 14 10 9 8 10 10 10 12 12 12 13 14 16 16 15 14 16 18
Wind_Direction
353 353 351 350 348 346 344 342 339 337 334 335 334 332 335 337 333 322 318 320 323 322 321 321 322 320 320 319 326 323 325 268 73 49 52 45 314 299 300 304 307 310 312 297 304 287 270 241 296 13 250 248 141 259 97 140 345 257 234 266 253 30 82 57 45 353 323 293 344 344 28 341 326 349 4 310 215 223 260 54 38 41 24 8 2 352 359 35
350 349 348 348 347 345 341 338 335 333 336 333 331 334 335 334 333 322 313 311 327 322 320 324 322 319 319 313 313 320 302 265 70 61 57 328 311 310 310 311 316 320 311 311 4 344 335 342 340 325 295 270 114 306 201 127 289 269 281 263 342 53 68 20 57 12 320 310 327 323 2 359 340 335 1 339 12 8 52 34 19 4 356 356 1 0 27 39
349 348 348 348 346 344 339 337 337 340 339 333 332 330 332 331 326 325 318 317 327 327 321 322 321 317 307 312 306 282 258 237 42 39 35 16 331 322 322 318 319 318 305 328 346 331 340 327 320 317 299 291 178 236 206 113 273 246 303 293 78 51 66 67 52 356 313 309 309 326 331 314 33 325 342 318 324 18 46 21 4 359 353 350 357 4 42 41
348 348 348 345 343 341 340 339 337 338 339 334 330 331 329 328 326 331 325 321 324 323 321 316 316 310 309 307 299 246 234 257 59 354 27 353 333 324 323 320 322 305 286 271 303 303 308 270 282 301 314 270 122 236 253 97 275 70 258 332 82 39 159 107 9 333 300 300 306 313 317 307 105 332 322 348 299 68 42 28 3 351 347 352 359 43 38 40
348 348 348 346 343 341 339 338 334 332 335 340 339 335 332 312 323 333 327 322 326 325 319 317 314 317 317 308 198 203 235 248 59 342 15 345 328 320 318 314 310 306 287 296 265 261 297 293 309 279 254 321 303 255 202 75 38 311 275 50 87 61 94 76 40 320 303 298 295 296 304 350 331 234 319 356 6 43 34 4 5 352 354 357 45 46 47 40
347 347 347 345 342 340 339 337 334 334 334 335 335 332 332 319 331 334 330 325 327 331 319 319 318 325 319 278 223 215 265 309 0 352 341 340 324 312 309 302 292 289 281 284 304 316 318 320 312 315 305 284 358 306 76 10 48 294 154 82 62 48 352 73 257 288 288 291 291 300 4 315 309 316 52 2 43 55 12 2 16 359 3 44 54 51 46 43
346 345 343 342 340 340 339 337 335 333 330 335 334 331 326 324 323 334 329 325 329 327 326 318 318 326 339 298 236 240 71 100 325 360 1 329 312 296 298 282 273 295 296 308 335 333 345 313 316 356 299 256 158 280 359 321 201 248 301 76 91 32 19 112 309 269 271 285 297 322 311 288 305 336 39 84 61 25 0 61 16 15 48 56 56 52 50 44
345 341 343 340 339 339 337 336 335 333 331 332 332 330 327 322 328 333 329 325 323 329 319 317 315 319 326 239 246 114 66 37 5 17 347 323 306 308 310 267 317 316 326 3 343 344 333 336 346 328 242 328 55 290 14 312 212 230 230 58 98 283 139 304 271 263 286 301 312 307 292 297 28 352 199 86 46 20 3 65 38 55 66 61 57 53 48 42
344 341 340 341 340 340 335 333 333 331 329 332 330 328 332 326 336 334 330 324 319 327 318 312 316 319 295 273 291 261 65 8 22 349 344 340 325 305 319 356 343 325 333 347 338 319 296 27 314 10 1 303 100 299 286 322 150 108 328 320 304 290 164 187 202 257 321 313 319 302 294 24 94 166 132 76 42 11 15 71 69 76 71 65 60 52 48 42
343 341 339 339 341 339 337 335 329 330 332 330 331 330 330 337 336 338 332 321 317 323 317 317 327 328 282 245 233 242 89 345 3 0 355 340 313 306 22 2 358 341 327 5 320 341 355 360 334 359 289 254 267 276 47 235 18 294 299 302 287 272 130 157 154 123 128 34 325 301 305 341 169 206 127 87 22 14 49 80 86 81 74 68 62 53 45 43
342 340 338 337 340 338 338 333 329 329 330 327 326 330 336 341 335 340 334 317 313 319 316 321 339 305 269 222 257 95 102 355 35 355 352 341 349 21 12 355 352 346 335 316 12 336 333 288 310 259 236 43 242 231 212 48 345 305 312 296 258 162 138 134 129 145 157 72 324 307 304 299 145 225 92 54 25 13 68 85 86 81 74 68 61 54 46 42
340 338 338 338 337 336 335 333 328 330 331 326 323 325 336 342 335 343 330 313 304 320 321 326 336 317 293 328 32 66 57 360 359 349 343 5 24 353 316 353 352 352 339 326 28 342 317 312 280 252 339 355 266 290 192 113 273 297 311 298 354 132 141 169 139 168 190 18 314 312 295 221 179 121 77 20 20 9 89 86 81 77 74 65 56 54 46 38
337 337 336 335 335 335 332 331 329 327 328 327 322 324 331 343 334 340 325 309 338 320 323 349 336 310 309 221 58 68 6 347 343 307 328 11 75 260 324 344 4 348 350 325 350 359 315 293 272 264 293 282 289 318 77 220 253 248 224 253 265 141 133 152 129 156 159 38 310 314 332 337 118 132 82 30 21 22 98 82 78 77 71 59 53 50 46 39
336 333 332 332 333 331 332 330 329 328 324 325 319 316 326 333 333 324 306 292 317 318 322 334 335 299 263 70 103 54 359 329 279 295 359 323 287 293 294 29 356 353 346 325 20 328 291 294 273 287 335 284 346 52 247 188 177 231 119 254 117 293 131 171 88 151 203 322 253 330 307 306 339 22 150 358 17 89 95 87 83 76 70 61 51 43 41 36
335 332 331 331 331 331 333 330 328 326 324 319 318 312 322 326 331 310 293 253 318 319 306 296 256 279 209 84 115 100 91 289 298 18 2 350 350 299 333 344 281 1 359 337 278 239 265 260 276 245 252 170 271 260 268 218 183 209 206 199 58 44 44 111 89 73 6 11 6 339 299 319 321 358 340 350 91 104 94 90 85 76 66 56 45 39 31 31
333 332 329 328 329 333 334 330 325 324 322 317 315 312 316 319 310 295 274 326 267 294 262 247 84 325 269 162 113 165 228 335 357 354 3 339 351 325 324 309 300 264 232 204 220 230 242 253 268 342 306 207 258 312 301 296 166 185 57 312 312 321 306 280 116 88 56 0 13 10 296 307 319 341 17 94 103 103 103 98 88 74 58 48 43 34 25 20
333 332 330 326 329 333 333 330 325 323 321 318 316 308 314 328 267 220 262 250 252 249 301 11 184 307 276 66 301 224 44 18 336 307 334 41 314 317 320 287 273 291 208 234 227 253 224 243 132 243 214 289 332 305 314 301 304 298 6 316 308 295 315 302 131 72 60 26 330 301 259 292 320 347 94 94 106 106 106 101 88 72 61 49 39 31 23 13
331 333 330 327 331 333 333 330 328 325 322 319 314 298 297 319 176 273 228 230 349 314 39 344 249 209 140 224 211 46 348 290 339 311 283 288 284 322 331 321 287 297 270 252 194 277 129 283 183 301 265 279 1 348 328 320 337 309 319 314 302 301 282 278 287 106 34 33 297 276 283 304 327 356 84 99 100 106 105 100 84 70 55 47 36 27 20 11
328 330 330 331 332 333 332 330 328 323 324 312 298 295 242 186 189 287 349 346 258 244 212 64 351 277 351 42 73 328 335 348 291 287 343 355 310 284 273 248 259 275 282 296 69 334 354 287 222 264 303 355 355 352 331 330 324 301 304 293 288 285 291 295 305 72 57 333 273 340 312 314 327 331 111 102 102 104 110 97 82 69 58 43 28 24 18 7
328 328 331 330 333 333 332 331 326 323 329 327 336 326 286 355 312 176 6 2 56 323 294 297 253 271 254 104 351 331 233 303 261 181 19 344 304 320 278 265 253 226 264 336 324 336 325 310 305 310 346 348 338 345 324 314 309 293 271 270 280 285 288 288 117 93 60 344 294 312 313 309 310 332 121 111 110 108 106 99 79 64 63 44 24 21 13 3
328 329 328 330 332 333 331 329 325 318 322 318 316 355 22 342 327 343 336 293 43 56 289 240 297 288 326 344 326 349 300 201 235 317 22 292 265 302 197 262 283 309 27 349 285 4 260 288 314 55 16 336 331 323 308 295 268 279 286 284 293 299 292 353 308 103 56 12 294 314 315 309 307 104 124 118 108 99 99 92 73 63 49 33 20 12 8 2
324 328 329 328 331 332 330 328 321 314 307 302 26 54 76 70 20 346 304 300 153 145 185 228 247 253 184 241 78 333 284 269 200 322 105 338 227 296 49 315 313 308 344 322 286 272 299 300 69 43 3 344 263 287 272 280 290 286 283 297 298 306 353 314 106 83 349 314 302 356 319 311 340 127 126 118 102 94 89 84 70 56 33 24 17 9 4 1
323 324 327 328 328 330 333 321 319 308 346 12 44 61 61 36 349 346 298 259 270 155 207 194 195 201 159 115 96 205 265 249 307 57 356 330 274 8 320 313 330 318 309 293 329 319 306 45 51 29 64 281 252 232 289 289 278 276 283 291 298 334 359 309 265 353 323 298 312 326 303 328 114 120 122 117 111 108 101 96 90 54 32 23 14 10 1 358
319 326 326 326 328 329 329 327 302 286 43 63 67 57 43 321 326 302 269 273 315 147 221 80 335 325 92 351 97 278 293 56 254 41 25 352 336 4 278 359 317 305 303 17 323 292 280 343 82 72 251 291 304 299 286 304 303 301 249 282 298 339 331 315 311 318 303 112 12 333 308 292 156 152 144 131 120 115 114 110 101 74 54 28 13 12 5 357
319 325 325 326 328 328 331 323 316 34 273 117 75 93 27 326 314 327 292 274 207 229 78 212 202 256 95 154 181 288 80 219 340 23 8 354 339 276 19 337 284 304 334 25 305 276 266 71 6 197 256 285 305 297 332 347 298 308 84 28 10 328 315 315 316 327 322 290 98 25 326 303 191 185 161 148 146 128 112 97 65 38 28 16 11 6 358 351
319 322 326 330 330 328 322 292 93 330 311 50 46 126 357 44 314 299 292 275 284 101 268 155 199 127 317 148 118 334 15 242 53 40 12 21 306 299 317 240 66 304 348 323 311 294 315 101 268 290 278 303 287 289 6 20 297 303 38 326 352 318 308 309 321 335 309 314 319 40 286 289 244 228 159 169 164 135 115 71 51 29 14 11 6 354 353 350
317 321 326 333 336 334 309 4 42 238 265 115 132 107 64 345 21 252 282 216 249 113 172 26 271 91 311 62 307 122 252 107 130 85 185 37 334 243 296 300 188 178 35 329 298 260 159 138 176 206 291 285 299 284 88 318 320 286 40 341 341 319 311 311 309 292 287 299 297 261 232 262 282 270 151 165 156 137 105 62 37 22 9 4 360 355 353 354
312 320 323 333 337 342 348 308 255 274 39 77 110 96 29 246 224 239 244 320 258 112 125 167 43 49 292 82 63 264 25 7 239 140 330 51 272 205 223 292 294 311 122 281 280 44 325 77 339 291 320 291 285 34 48 22 261 316 359 346 311 302 294 288 284 297 300 310 293 272 206 250 254 189 145 172 201 182 43 36 18 12 4 360 357 355 350 349
304 314 323 329 328 300 293 298 301 347 104 116 140 152 90 191 232 301 309 269 83 157 3 105 314 210 152 158 216 238 249 129 277 65 173 230 90 311 282 3 347 300 223 238 265 269 66 31 34 354 329 288 64 61 57 359 263 24 337 292 265 251 254 254 279 299 307 305 278 262 195 237 272 157 187 193 226 264 25 6 11 4 1 355 355 350 349 350
297 307 322 336 313 234 235 234 40 82 126 117 123 190 176 201 236 227 218 253 69 200 117 71 231 119 204 264 226 174 219 176 260 78 191 271 84 215 111 344 270 257 260 231 242 272 82 93 248 230 285 356 351 85 328 20 321 297 280 281 296 282 279 280 277 292 311 258 267 234 187 232 283 266 252 177 190 58 359 1 358 354 352 353 352 352 348 341
282 305 327 329 305 11 328 235 141 159 134 149 148 177 209 226 256 291 237 232 30 147 86 184 168 146 241 238 259 137 246 196 189 207 223 175 202 208 211 230 151 258 239 245 242 227 191 154 191 90 347 256 111 213 189 245 265 286 313 316 311 291 288 279 258 345 255 276 91 106 115 278 251 264 120 107 116 79 40 353 356 351 349 349 351 348 339 334
261 303 359 312 9 323 278 12 129 144 146 140 188 200 233 274 189 207 244 93 265 135 210 121 63 244 170 74 276 252 293 209 179 218 271 355 283 266 220 268 324 304 280 231 251 116 233 204 79 111 309 194 204 267 201 201 228 258 288 304 346 306 326 302 160 253 213 259 115 110 78 283 238 268 128 145 142 105 38 16 5 350 347 349 344 338 333 331
239 104 50 252 291 239 261 64 134 145 136 171 206 233 248 240 260 212 238 139 258 53 157 359 82 178 126 321 252 197 100 268 135 203 111 200 245 247 103 235 80 242 280 325 313 281 274 82 147 129 167 156 254 239 221 209 151 309 317 343 325 310 317 290 288 274 271 232 106 236 350 273 265 260 158 142 130 94 35 17 8 351 346 341 336 332 331 332
132 174 256 78 272 296 229 177 168 157 147 176 236 212 224 234 239 47 269 216 302 114 72 121 151 159 199 242 298 139 277 174 245 180 178 200 187 255 194 195 184 224 223 290 275 283 289 255 178 189 185 108 227 287 3 4 3 79 78 265 265 264 279 289 317 308 302 285 290 292 322 240 302 84 128 125 106 107 34 360 358 351 340 335 332 327 330 331
137 216 259 251 242 232 211 198 179 187 216 226 215 219 225 234 253 258 235 224 178 188 174 101 246 226 246 224 190 209 225 275 166 164 212 204 240 230 249 188 188 211 228 268 245 288 227 259 88 9 11 304 177 24 275 8 199 128 56 69 196 235 233 252 300 305 306 307 310 182 209 246 300 112 124 137 122 210 17 356 349 343 335 334 331 330 329 331
172 186 170 234 205 184 187 186 187 187 224 218 219 221 223 214 249 146 257 45 92 258 107 211 209 252 258 257 147 187 99 236 131 187 237 209 241 260 166 156 180 185 192 209 28 264 119 245 117 128 337 119 61 288 141 155 241 141 158 216 84 46 317 283 288 254 14 269 257 199 258 251 97 176 155 164 139 6 357 351 345 336 335 334 332 332 331 331
248 160 242 180 208 170 177 174 180 190 228 228 223 236 232 241 239 249 151 200 124 17 287 299 253 190 272 255 190 187 162 159 224 202 274 125 253 208 192 180 126 185 225 245 254 196 257 307 156 165 190 79 357 341 140 334 317 112 233 143 140 97 101 230 274 297 268 266 268 188 241 277 267 280 159 176 34 337 348 343 339 332 334 333 330 329 329 328
194 231 278 246 163 160 168 170 179 211 226 216 230 237 213 240 179 225 108 116 184 158 252 224 247 174 262 251 265 156 151 220 134 158 266 169 285 115 172 174 177 200 172 360 243 14 85 275 169 287 102 131 253 218 216 151 353 290 58 82 205 259 294 182 117 262 275 265 293 272 276 261 255 255 134 206 344 343 337 339 333 333 334 332 330 328 328 328
212 298 260 132 130 159 158 168 204 202 198 223 230 246 231 233 229 195 163 189 100 180 239 230 246 213 229 253 251 122 158 247 171 216 263 207 226 162 191 149 183 164 92 128 217 116 285 245 295 174 133 137 239 201 233 169 145 85 103 183 82 258 240 217 218 274 252 270 307 276 308 277 225 280 135 15 345 335 336 336 333 329 331 332 331 329 329 332
196 170 224 113 153 143 155 177 199 204 210 223 218 230 91 226 213 171 177 185 214 202 233 252 223 255 239 248 222 249 198 215 231 249 202 207 254 152 180 162 164 157 146 267 166 49 209 171 269 115 320 110 231 194 226 187 171 164 182 215 151 211 334 299 281 181 222 261 257 289 294 295 95 91 100 315 336 340 339 333 329 326 328 331 331 329 329 330
233 260 161 155 148 158 155 190 194 200 215 235 243 243 158 228 187 194 200 197 245 221 256 240 230 226 241 251 240 206 250 222 219 232 214 234 208 267 174 170 143 139 127 88 161 196 179 195 231 139 214 208 221 32 13 360 243 204 194 220 198 189 186 202 257 121 218 228 252 255 264 272 155 157 320 351 350 330 335 333 324 325 327 329 330 328 330 329
178 219 175 151 162 170 185 177 211 208 227 221 225 199 245 186 245 187 173 195 219 230 144 266 253 254 250 240 254 227 230 248 230 209 226 235 212 223 71 160 152 145 146 174 192 158 152 323 238 232 221 229 358 16 346 291 321 279 243 233 222 214 173 208 243 206 145 236 242 257 287 279 129 79 194 219 301 332 334 328 322 323 325 327 327 326 326 327
206 225 62 161 168 185 205 233 184 203 227 244 34 271 202 225 228 189 190 170 211 214 240 229 225 215 236 234 238 246 215 244 219 205 235 217 239 41 123 157 137 151 69 88 44 218 55 169 241 250 76 94 175 119 9 1 286 270 242 222 194 202 197 204 222 272 267 251 228 247 246 244 125 174 196 243 314 330 331 329 324 324 325 326 328 325 323 323
194 186 147 175 187 214 218 217 210 215 232 234 221 249 186 246 209 190 208 182 190 187 217 223 238 214 248 206 221 239 196 261 213 221 239 196 216 68 94 147 142 168 162 197 155 173 140 199 156 247 262 233 212 212 220 173 196 229 208 200 200 213 214 226 292 19 269 234 220 220 250 261 82 153 223 301 324 324 325 326 328 323 324 325 328 325 323 323
156 48 96 154 187 207 213 229 236 234 221 230 230 237 217 232 223 217 202 210 201 223 163 238 222 183 217 197 228 235 213 212 282 207 231 180 134 149 358 76 343 146 48 354 29 160 208 188 161 201 220 242 235 211 226 199 204 215 224 202 202 206 210 182 223 206 237 220 211 228 252 264 263 266 292 307 310 314 319 324 323 321 322 325 326 322 321 321
185 213 146 145 192 236 258 294 301 253 251 241 240 243 228 238 208 198 213 235 215 209 214 216 87 214 225 125 230 224 228 215 221 234 172 200 136 82 113 22 28 75 61 70 52 175 201 263 226 222 234 244 260 2 61 127 167 194 204 203 210 209 208 204 210 227 231 252 252 238 246 274 273 279 286 294 309 314 321 321 318 321 322 323 323 322 321 319
152 229 147 177 166 230 240 226 234 233 237 229 257 249 231 227 224 213 191 236 218 207 219 219 191 178 207 190 228 244 224 212 216 290 224 155 74 91 55 82 21 58 26 102 66 82 218 231 230 235 247 256 275 295 194 180 231 231 207 215 215 207 197 206 210 227 217 258 260 242 246 255 268 276 282 302 311 316 322 319 318 320 322 322 325 323 319 319
218 206 174 174 180 197 211 225 225 232 241 230 245 251 255 244 219 231 165 216 61 202 207 226 222 218 193 203 193 237 219 203 163 228 101 130 110 126 90 111 218 165 182 164 224 204 213 241 233 226 248 255 262 268 245 231 241 246 244 234 227 213 201 210 225 229 222 224 252 273 272 268 272 278 294 301 306 323 321 317 315 316 316 319 321 320 320 323
228 358 232 167 218 230 193 180 187 213 227 226 241 235 243 238 239 220 163 171 177 226 199 235 226 206 215 215 201 240 211 119 234 217 170 158 173 136 176 38 230 170 192 177 191 240 119 254 232 235 259 255 251 253 256 262 264 256 245 239 239 228 220 217 225 228 229 243 255 269 272 270 274 281 289 296 322 321 316 312 311 315 318 319 319 317 317 321
198 181 187 256 278 258 234 192 185 197 224 213 225 228 227 224 238 226 195 170 197 224 201 227 240 161 207 216 214 230 225 209 230 198 177 148 171 179 198 190 132 152 179 191 176 272 174 271 114 222 258 259 249 252 254 256 262 264 256 247 241 236 237 232 231 233 237 249 253 258 263 267 269 274 280 316 323 312 311 313 314 315 318 317 317 315 316 318
254 195 143 181 220 228 219 182 188 200 225 221 218 224 217 223 236 218 222 198 210 199 173 217 226 230 218 220 224 234 236 229 212 181 155 166 191 178 164 211 139 162 178 183 187 231 194 244 104 204 269 272 236 235 245 256 264 268 263 247 237 232 236 230 232 225 223 235 245 253 256 258 269 278 307 314 311 311 313 314 311 315 314 310 308 310 316 316
221 336 236 224 247 196 218 213 228 215 234 223 202 213 209 224 229 201 247 229 226 219 190 203 211 213 233 226 229 231 207 106 113 100 147 139 65 153 198 161 168 160 172 188 171 173 192 189 187 175 239 272 314 200 259 293 305 274 250 231 228 231 231 232 235 230 227 228 238 241 246 260 280 300 299 298 304 307 309 312 308 306 304 303 303 312 315 314